| time (UTC) | temp F | wind direction | speed knots | gust knots | rain 1hr in | rain 24hr in | rain mn in | humidity % | barometer mb |
| 20260508115542 | 44 | 68 | 0.0 | 4.3 | 0.00 | 0.00 | 0.00 | 78 | 1012.4 |
| 20260508115039 | 44 | 0 | 0.0 | 2.6 | 0.00 | 0.00 | 0.00 | 78 | 1012.4 |
| 20260508114556 | 43 | 0 | 0.0 | 2.6 | 0.00 | 0.00 | 0.00 | 80 | 1012.4 |
| 20260508114039 | 43 | 0 | 0.0 | 2.6 | 0.00 | 0.00 | 0.00 | 82 | 1012.3 |
| 20260508113543 | 42 | 0 | 0.0 | 2.6 | 0.00 | 0.00 | 0.00 | 83 | 1012.2 |
| 20260508113110 | 41 | 72 | 0.0 | 2.6 | 0.00 | 0.00 | 0.00 | 84 | 1012.1 |
| 20260508112543 | 41 | 0 | 0.0 | 2.6 | 0.00 | 0.00 | 0.00 | 87 | 1012.1 |
| 20260508112041 | 40 | 65 | 0.0 | 1.7 | 0.00 | 0.00 | 0.00 | 88 | 1012.1 |
| 20260508111551 | 40 | 347 | 0.0 | 1.7 | 0.00 | 0.00 | 0.00 | 91 | 1012.1 |
| 20260508111043 | 39 | 0 | 0.0 | 1.7 | 0.00 | 0.00 | 0.00 | 91 | 1012.0 |
| 20260508110543 | 38 | 0 | 0.0 | 0.0 | 0.00 | 0.00 | 0.00 | 91 | 1012.1 |
| 20260508110051 | 38 | 0 | 0.0 | 0.0 | 0.00 | 0.00 | 0.00 | 91 | 1012.0 |
| 20260508105544 | 38 | 0 | 0.0 | 0.0 | 0.00 | 0.00 | 0.00 | 91 | 1011.9 |
| 20260508105044 | 38 | 0 | 0.0 | 0.0 | 0.00 | 0.00 | 0.00 | 91 | 1012.0 |
| 20260508104600 | 38 | 0 | 0.0 | 0.0 | 0.00 | 0.00 | 0.00 | 91 | 1011.9 |
| 20260508104042 | 38 | 0 | 0.0 | 0.0 | 0.00 | 0.00 | 0.00 | 91 | 1011.9 |
| 20260508103542 | 38 | 0 | 0.0 | 0.0 | 0.00 | 0.00 | 0.00 | 91 | 1011.9 |
| 20260508103052 | 38 | 0 | 0.0 | 0.0 | 0.00 | 0.00 | 0.00 | 90 | 1011.8 |
| 20260508102539 | 39 | 0 | 0.0 | 0.0 | 0.00 | 0.00 | 0.00 | 90 | 1011.8 |
| 20260508102040 | 39 | 0 | 0.0 | 0.0 | 0.00 | 0.00 | 0.00 | 90 | 1011.9 |
| 20260508101551 | 39 | 0 | 0.0 | 0.0 | 0.00 | 0.00 | 0.00 | 90 | 1011.8 |
| 20260508101044 | 39 | 0 | 0.0 | 0.0 | 0.00 | 0.00 | 0.00 | 90 | 1011.9 |
| 20260508100542 | 39 | 0 | 0.0 | 0.0 | 0.00 | 0.00 | 0.00 | 89 | 1011.8 |
| 20260508100051 | 39 | 0 | 0.0 | 0.0 | 0.00 | 0.00 | 0.00 | 89 | 1011.8 |
| 20260508095543 | 39 | 0 | 0.0 | 0.0 | 0.00 | 0.00 | 0.00 | 89 | 1011.9 |
| 20260508095046 | 39 | 0 | 0.0 | 0.0 | 0.00 | 0.00 | 0.00 | 88 | 1011.9 |
| 20260508094551 | 40 | 0 | 0.0 | 0.0 | 0.00 | 0.00 | 0.00 | 88 | 1011.9 |
| 20260508094042 | 40 | 0 | 0.0 | 0.0 | 0.00 | 0.00 | 0.00 | 88 | 1012.0 |
| 20260508093542 | 40 | 0 | 0.0 | 0.0 | 0.00 | 0.00 | 0.00 | 88 | 1012.0 |
| 20260508093054 | 40 | 0 | 0.0 | 0.0 | 0.00 | 0.00 | 0.00 | 88 | 1012.0 |
| 20260508092540 | 40 | 0 | 0.0 | 0.0 | 0.00 | 0.00 | 0.00 | 88 | 1012.0 |
| 20260508092043 | 41 | 0 | 0.0 | 0.0 | 0.00 | 0.00 | 0.00 | 88 | 1012.0 |
| 20260508091557 | 41 | 0 | 0.0 | 0.0 | 0.00 | 0.00 | 0.00 | 87 | 1012.1 |
| 20260508091042 | 41 | 0 | 0.0 | 0.0 | 0.00 | 0.00 | 0.00 | 85 | 1012.1 |
| 20260508090542 | 42 | 0 | 0.0 | 0.0 | 0.00 | 0.00 | 0.00 | 84 | 1012.1 |
| 20260508090105 | 42 | 0 | 0.0 | 0.0 | 0.00 | 0.00 | 0.00 | 84 | 1012.0 |
| 20260508085541 | 43 | 0 | 0.0 | 0.0 | 0.00 | 0.00 | 0.00 | 83 | 1012.0 |
| 20260508085041 | 43 | 0 | 0.0 | 0.0 | 0.00 | 0.00 | 0.00 | 84 | 1011.9 |
| 20260508084550 | 43 | 0 | 0.0 | 1.7 | 0.00 | 0.00 | 0.00 | 85 | 1011.8 |
| 20260508084044 | 43 | 0 | 0.0 | 1.7 | 0.00 | 0.00 | 0.00 | 84 | 1011.9 |
| 20260508083543 | 43 | 0 | 0.0 | 1.7 | 0.00 | 0.00 | 0.00 | 85 | 1011.9 |
| 20260508083047 | 43 | 0 | 0.0 | 1.7 | 0.00 | 0.00 | 0.00 | 84 | 1011.9 |
| 20260508082542 | 43 | 0 | 0.0 | 1.7 | 0.00 | 0.00 | 0.00 | 83 | 1012.0 |
| 20260508082042 | 43 | 0 | 0.0 | 0.9 | 0.00 | 0.00 | 0.00 | 82 | 1012.1 |
| 20260508081600 | 43 | 0 | 0.0 | 0.9 | 0.00 | 0.00 | 0.00 | 85 | 1012.1 |
| 20260508081043 | 43 | 0 | 0.0 | 0.9 | 0.00 | 0.00 | 0.00 | 82 | 1012.0 |
| 20260508080543 | 43 | 0 | 0.0 | 0.0 | 0.00 | 0.00 | 0.00 | 82 | 1012.1 |
| 20260508080054 | 42 | 0 | 0.0 | 0.0 | 0.00 | 0.00 | 0.00 | 84 | 1012.1 |
| 20260508075542 | 42 | 0 | 0.0 | 0.0 | 0.00 | 0.00 | 0.00 | 85 | 1012.1 |
| 20260508075041 | 42 | 0 | 0.0 | 1.7 | 0.00 | 0.00 | 0.00 | 86 | 1012.1 |
| 20260508074551 | 43 | 0 | 0.0 | 1.7 | 0.00 | 0.00 | 0.00 | 85 | 1012.2 |
| 20260508074046 | 43 | 0 | 0.0 | 0.9 | 0.00 | 0.00 | 0.00 | 83 | 1012.4 |
| 20260508073542 | 42 | 0 | 0.0 | 0.9 | 0.00 | 0.00 | 0.00 | 87 | 1012.4 |
| 20260508073107 | 42 | 0 | 0.0 | 0.9 | 0.00 | 0.00 | 0.00 | 88 | 1012.4 |
| 20260508072541 | 42 | 0 | 0.0 | 1.7 | 0.00 | 0.00 | 0.00 | 88 | 1012.5 |
| 20260508072040 | 42 | 0 | 0.0 | 1.7 | 0.00 | 0.00 | 0.00 | 88 | 1012.5 |
| 20260508071604 | 42 | 0 | 0.0 | 2.6 | 0.00 | 0.00 | 0.00 | 89 | 1012.5 |
| 20260508071042 | 42 | 50 | 0.0 | 2.6 | 0.00 | 0.00 | 0.00 | 88 | 1012.5 |
| 20260508070541 | 42 | 0 | 0.0 | 0.0 | 0.00 | 0.00 | 0.00 | 89 | 1012.6 |
| 20260508070058 | 41 | 0 | 0.0 | 0.0 | 0.00 | 0.00 | 0.00 | 89 | 1012.5 |
| 20260508065546 | 41 | 0 | 0.0 | 0.0 | 0.00 | 0.00 | 0.00 | 88 | 1012.5 |
| 20260508065042 | 42 | 0 | 0.0 | 0.0 | 0.00 | 0.00 | 0.00 | 88 | 1012.5 |
| 20260508064550 | 42 | 0 | 0.0 | 0.0 | 0.00 | 0.00 | 0.00 | 89 | 1012.4 |
| 20260508064045 | 42 | 0 | 0.0 | 0.0 | 0.00 | 0.00 | 0.00 | 90 | 1012.3 |
| 20260508063542 | 41 | 0 | 0.0 | 0.0 | 0.00 | 0.00 | 0.00 | 90 | 1012.3 |
| 20260508063049 | 41 | 0 | 0.0 | 0.0 | 0.00 | 0.00 | 0.00 | 90 | 1012.1 |
| 20260508062541 | 40 | 0 | 0.0 | 0.0 | 0.00 | 0.00 | 0.00 | 89 | 1012.0 |
| 20260508062042 | 40 | 0 | 0.0 | 0.0 | 0.00 | 0.00 | 0.00 | 89 | 1012.0 |
| 20260508061552 | 40 | 0 | 0.0 | 0.0 | 0.00 | 0.00 | 0.00 | 88 | 1012.0 |
| 20260508061042 | 40 | 0 | 0.0 | 0.0 | 0.00 | 0.00 | 0.00 | 87 | 1012.0 |
| 20260508060542 | 41 | 0 | 0.0 | 0.0 | 0.00 | 0.00 | 0.00 | 88 | 1012.1 |
| 20260508060055 | 40 | 0 | 0.0 | 0.0 | 0.00 | 0.00 | 0.00 | 88 | 1012.2 |
| 20260508055542 | 40 | 0 | 0.0 | 0.0 | 0.00 | 0.00 | 0.00 | 88 | 1012.2 |
| 20260508055040 | 39 | 0 | 0.0 | 0.0 | 0.00 | 0.00 | 0.00 | 90 | 1012.2 |
| 20260508054605 | 39 | 0 | 0.0 | 0.0 | 0.00 | 0.00 | 0.00 | 90 | 1012.2 |
| 20260508054044 | 39 | 0 | 0.0 | 0.0 | 0.00 | 0.00 | 0.00 | 90 | 1012.2 |
| 20260508053541 | 38 | 0 | 0.0 | 0.0 | 0.00 | 0.00 | 0.00 | 90 | 1012.3 |
| 20260508053053 | 38 | 0 | 0.0 | 0.0 | 0.00 | 0.00 | 0.00 | 90 | 1012.3 |
| 20260508052541 | 38 | 0 | 0.0 | 0.0 | 0.00 | 0.00 | 0.00 | 90 | 1012.3 |
| 20260508052040 | 38 | 0 | 0.0 | 0.0 | 0.00 | 0.00 | 0.00 | 89 | 1012.3 |
| 20260508051548 | 39 | 0 | 0.0 | 0.0 | 0.00 | 0.00 | 0.00 | 90 | 1012.3 |
| 20260508051042 | 39 | 0 | 0.0 | 0.0 | 0.00 | 0.00 | 0.00 | 90 | 1012.4 |
| 20260508050542 | 39 | 0 | 0.0 | 0.0 | 0.00 | 0.00 | 0.00 | 89 | 1012.5 |
| 20260508050053 | 39 | 0 | 0.0 | 0.0 | 0.00 | 0.00 | 0.00 | 89 | 1012.5 |
| 20260508045540 | 39 | 0 | 0.0 | 0.0 | 0.00 | 0.00 | 0.00 | 88 | 1012.5 |
| 20260508045041 | 39 | 0 | 0.0 | 0.0 | 0.00 | 0.00 | 0.00 | 87 | 1012.6 |
| 20260508044558 | 40 | 0 | 0.0 | 0.0 | 0.00 | 0.00 | 0.00 | 88 | 1012.5 |
| 20260508044046 | 40 | 0 | 0.0 | 0.0 | 0.00 | 0.00 | 0.00 | 88 | 1012.7 |
| 20260508043541 | 40 | 0 | 0.0 | 0.0 | 0.00 | 0.00 | 0.00 | 89 | 1012.7 |
| 20260508043049 | 40 | 0 | 0.0 | 0.0 | 0.00 | 0.00 | 0.00 | 88 | 1012.6 |
| 20260508042541 | 40 | 0 | 0.0 | 0.0 | 0.00 | 0.00 | 0.00 | 88 | 1012.6 |
| 20260508042041 | 40 | 0 | 0.0 | 0.0 | 0.00 | 0.00 | 0.00 | 88 | 1012.7 |
| 20260508041551 | 41 | 0 | 0.0 | 0.0 | 0.00 | 0.00 | 0.00 | 88 | 1012.5 |
| 20260508041042 | 40 | 0 | 0.0 | 0.0 | 0.00 | 0.00 | 0.00 | 89 | 1012.5 |
| 20260508040542 | 40 | 0 | 0.0 | 0.0 | 0.00 | 0.00 | 0.00 | 89 | 1012.4 |
| 20260508040059 | 40 | 0 | 0.0 | 0.0 | 0.00 | 0.00 | 0.00 | 88 | 1012.4 |
| 20260508035542 | 40 | 0 | 0.0 | 0.0 | 0.00 | 0.00 | 0.00 | 89 | 1012.4 |
| 20260508035042 | 40 | 0 | 0.0 | 0.0 | 0.00 | 0.00 | 0.00 | 88 | 1012.4 |
| 20260508034554 | 40 | 0 | 0.0 | 0.0 | 0.00 | 0.00 | 0.00 | 88 | 1012.4 |
| 20260508034042 | 40 | 0 | 0.0 | 0.0 | 0.00 | 0.00 | 0.00 | 88 | 1012.4 |
| 20260508033539 | 40 | 0 | 0.0 | 0.0 | 0.00 | 0.00 | 0.00 | 87 | 1012.4 |
| 20260508033113 | 41 | 0 | 0.0 | 0.0 | 0.00 | 0.00 | 0.00 | 87 | 1012.3 |
| 20260508032540 | 41 | 0 | 0.0 | 0.0 | 0.00 | 0.00 | 0.00 | 87 | 1012.3 |
| 20260508032041 | 40 | 0 | 0.0 | 0.0 | 0.00 | 0.00 | 0.00 | 87 | 1012.3 |
| 20260508031552 | 40 | 0 | 0.0 | 0.0 | 0.00 | 0.00 | 0.00 | 87 | 1012.4 |
| 20260508031046 | 41 | 0 | 0.0 | 0.0 | 0.00 | 0.00 | 0.00 | 86 | 1012.3 |
| 20260508030541 | 41 | 0 | 0.0 | 0.0 | 0.00 | 0.00 | 0.00 | 86 | 1012.4 |
| 20260508030108 | 41 | 0 | 0.0 | 0.0 | 0.00 | 0.00 | 0.00 | 85 | 1012.5 |
| 20260508025542 | 41 | 0 | 0.0 | 0.0 | 0.00 | 0.00 | 0.00 | 84 | 1012.4 |
| 20260508025042 | 42 | 0 | 0.0 | 0.0 | 0.00 | 0.00 | 0.00 | 83 | 1012.5 |
| 20260508024620 | 42 | 0 | 0.0 | 0.0 | 0.00 | 0.00 | 0.00 | 84 | 1012.5 |
| 20260508024046 | 41 | 0 | 0.0 | 0.0 | 0.00 | 0.00 | 0.00 | 83 | 1012.4 |
| 20260508023542 | 42 | 0 | 0.0 | 0.0 | 0.00 | 0.00 | 0.00 | 83 | 1012.5 |
| 20260508023051 | 42 | 0 | 0.0 | 0.0 | 0.00 | 0.00 | 0.00 | 82 | 1012.5 |
| 20260508022541 | 42 | 0 | 0.0 | 0.0 | 0.00 | 0.00 | 0.00 | 83 | 1012.5 |
| 20260508022041 | 42 | 0 | 0.0 | 0.0 | 0.00 | 0.00 | 0.00 | 81 | 1012.4 |
| 20260508021551 | 43 | 0 | 0.0 | 0.0 | 0.00 | 0.00 | 0.00 | 80 | 1012.4 |
| 20260508021041 | 43 | 0 | 0.0 | 0.0 | 0.00 | 0.00 | 0.00 | 80 | 1012.5 |
| 20260508020541 | 43 | 0 | 0.0 | 0.0 | 0.00 | 0.00 | 0.00 | 79 | 1012.4 |
| 20260508020106 | 44 | 0 | 0.0 | 0.0 | 0.00 | 0.00 | 0.00 | 77 | 1012.3 |
| 20260508015541 | 44 | 0 | 0.0 | 0.0 | 0.00 | 0.00 | 0.00 | 78 | 1012.4 |
| 20260508015039 | 44 | 0 | 0.0 | 0.0 | 0.00 | 0.00 | 0.00 | 75 | 1012.4 |
| 20260508014600 | 44 | 0 | 0.0 | 0.0 | 0.00 | 0.00 | 0.00 | 74 | 1012.2 |
| 20260508014043 | 44 | 0 | 0.0 | 0.0 | 0.00 | 0.00 | 0.00 | 73 | 1012.3 |
| 20260508013541 | 45 | 0 | 0.0 | 0.0 | 0.00 | 0.00 | 0.00 | 72 | 1012.2 |
| 20260508013107 | 45 | 0 | 0.0 | 0.0 | 0.00 | 0.00 | 0.00 | 72 | 1012.1 |
| 20260508012541 | 46 | 0 | 0.0 | 0.0 | 0.00 | 0.00 | 0.00 | 69 | 1012.1 |
| 20260508012040 | 46 | 0 | 0.0 | 0.0 | 0.00 | 0.00 | 0.00 | 68 | 1012.1 |
| 20260508011559 | 47 | 0 | 0.0 | 0.0 | 0.00 | 0.00 | 0.00 | 67 | 1012.0 |
| 20260508011045 | 47 | 0 | 0.0 | 0.0 | 0.00 | 0.00 | 0.00 | 66 | 1012.0 |
| 20260508010540 | 47 | 0 | 0.0 | 0.0 | 0.00 | 0.00 | 0.00 | 64 | 1011.9 |
| 20260508010055 | 48 | 0 | 0.0 | 0.0 | 0.00 | 0.00 | 0.00 | 64 | 1011.8 |
| 20260508005541 | 48 | 0 | 0.0 | 0.0 | 0.00 | 0.00 | 0.00 | 61 | 1011.8 |
| 20260508005042 | 49 | 0 | 0.0 | 0.0 | 0.00 | 0.00 | 0.00 | 59 | 1011.8 |
| 20260508004551 | 50 | 0 | 0.0 | 0.9 | 0.00 | 0.00 | 0.00 | 59 | 1011.8 |
| 20260508004042 | 51 | 0 | 0.0 | 0.9 | 0.00 | 0.00 | 0.00 | 56 | 1011.8 |
| 20260508003543 | 52 | 0 | 0.0 | 1.7 | 0.00 | 0.00 | 0.00 | 55 | 1011.7 |
| 20260508003051 | 52 | 0 | 0.0 | 1.7 | 0.00 | 0.00 | 0.00 | 53 | 1011.7 |
| 20260508002542 | 52 | 0 | 0.0 | 2.6 | 0.00 | 0.00 | 0.00 | 51 | 1011.5 |
| 20260508002042 | 53 | 0 | 0.0 | 3.5 | 0.00 | 0.00 | 0.00 | 49 | 1011.6 |
| 20260508001556 | 53 | 113 | 0.0 | 7.8 | 0.00 | 0.00 | 0.00 | 50 | 1011.6 |
| 20260508001042 | 54 | 140 | 0.0 | 7.8 | 0.00 | 0.00 | 0.00 | 45 | 1011.5 |
| 20260508000542 | 54 | 138 | 4.3 | 7.8 | 0.00 | 0.00 | 0.00 | 44 | 1011.6 |
| 20260508000053 | 54 | 154 | 0.9 | 5.2 | 0.00 | 0.00 | 0.00 | 47 | 1011.6 |
| 20260507235542 | 55 | 0 | 0.0 | 7.0 | 0.00 | 0.00 | 0.00 | 43 | 1011.3 |
| 20260507235041 | 55 | 0 | 1.7 | 7.8 | 0.00 | 0.00 | 0.00 | 43 | 1011.4 |
| 20260507234547 | 55 | 146 | 1.7 | 7.8 | 0.00 | 0.00 | 0.00 | 45 | 1011.3 |
| 20260507234044 | 56 | 142 | 2.6 | 7.8 | 0.00 | 0.00 | 0.00 | 45 | 1011.3 |
| 20260507233541 | 56 | 109 | 1.7 | 7.8 | 0.00 | 0.00 | 0.00 | 41 | 1011.1 |
| 20260507233053 | 56 | 143 | 3.5 | 7.8 | 0.00 | 0.00 | 0.00 | 41 | 1011.2 |
| 20260507232542 | 57 | 117 | 1.7 | 7.8 | 0.00 | 0.00 | 0.00 | 43 | 1011.1 |
| 20260507232043 | 57 | 144 | 2.6 | 8.7 | 0.00 | 0.00 | 0.00 | 44 | 1011.1 |
| 20260507231552 | 57 | 152 | 1.7 | 8.7 | 0.00 | 0.00 | 0.00 | 42 | 1011.1 |
| 20260507231040 | 57 | 131 | 2.6 | 12.2 | 0.00 | 0.00 | 0.00 | 41 | 1011.1 |
| 20260507230544 | 57 | 157 | 3.5 | 12.2 | 0.00 | 0.00 | 0.00 | 43 | 1011.2 |
| 20260507230053 | 57 | 154 | 4.3 | 12.2 | 0.00 | 0.00 | 0.00 | 44 | 1011.2 |
| 20260507225544 | 56 | 136 | 3.5 | 7.8 | 0.00 | 0.00 | 0.00 | 45 | 1011.3 |
| 20260507225041 | 57 | 131 | 3.5 | 10.4 | 0.00 | 0.00 | 0.00 | 42 | 1011.4 |
| 20260507224551 | 57 | 149 | 3.5 | 12.2 | 0.00 | 0.00 | 0.00 | 46 | 1011.3 |
| 20260507224044 | 57 | 173 | 6.1 | 12.2 | 0.00 | 0.00 | 0.00 | 43 | 1011.4 |
| 20260507223542 | 57 | 145 | 5.2 | 11.3 | 0.00 | 0.00 | 0.00 | 44 | 1011.4 |
| 20260507223053 | 57 | 171 | 4.3 | 12.2 | 0.00 | 0.00 | 0.00 | 43 | 1011.4 |
| 20260507222542 | 57 | 138 | 5.2 | 16.5 | 0.00 | 0.00 | 0.00 | 45 | 1011.4 |
| 20260507222044 | 56 | 150 | 4.3 | 16.5 | 0.00 | 0.00 | 0.00 | 43 | 1011.4 |
| 20260507221549 | 57 | 161 | 6.1 | 13.0 | 0.00 | 0.00 | 0.00 | 44 | 1011.3 |
| 20260507221040 | 57 | 137 | 4.3 | 14.8 | 0.00 | 0.00 | 0.00 | 45 | 1011.3 |
| 20260507220541 | 57 | 146 | 8.7 | 14.8 | 0.00 | 0.00 | 0.00 | 44 | 1011.2 |
| 20260507220053 | 57 | 165 | 5.2 | 18.2 | 0.00 | 0.00 | 0.00 | 42 | 1011.1 |
| 20260507215542 | 57 | 131 | 8.7 | 18.2 | 0.00 | 0.00 | 0.00 | 42 | 1011.2 |
| 20260507215041 | 57 | 131 | 7.0 | 14.8 | 0.00 | 0.00 | 0.00 | 42 | 1011.1 |
| 20260507214549 | 57 | 136 | 6.1 | 13.9 | 0.00 | 0.00 | 0.00 | 45 | 1011.1 |
| 20260507214040 | 56 | 99 | 4.3 | 14.8 | 0.00 | 0.00 | 0.00 | 43 | 1011.0 |
| 20260507213540 | 57 | 127 | 8.7 | 14.8 | 0.00 | 0.00 | 0.00 | 41 | 1011.0 |
| 20260507213057 | 58 | 97 | 6.1 | 15.6 | 0.00 | 0.00 | 0.00 | 44 | 1010.9 |
| 20260507212542 | 58 | 133 | 6.1 | 15.6 | 0.00 | 0.00 | 0.00 | 45 | 1010.8 |
| 20260507212043 | 58 | 167 | 7.8 | 15.6 | 0.00 | 0.00 | 0.00 | 45 | 1010.8 |
| 20260507211553 | 58 | 155 | 1.7 | 15.6 | 0.00 | 0.00 | 0.00 | 46 | 1010.6 |
| 20260507211042 | 57 | 111 | 6.1 | 15.6 | 0.00 | 0.00 | 0.00 | 44 | 1010.6 |
| 20260507210542 | 57 | 139 | 9.6 | 15.6 | 0.00 | 0.00 | 0.00 | 45 | 1010.5 |
| 20260507210050 | 58 | 142 | 7.0 | 15.6 | 0.00 | 0.00 | 0.00 | 45 | 1010.4 |
| 20260507205540 | 57 | 154 | 6.1 | 15.6 | 0.00 | 0.00 | 0.00 | 46 | 1010.4 |
| 20260507205039 | 56 | 123 | 3.5 | 13.9 | 0.00 | 0.00 | 0.00 | 49 | 1010.3 |
| 20260507204551 | 57 | 132 | 6.1 | 13.9 | 0.00 | 0.00 | 0.00 | 47 | 1010.3 |
| 20260507204041 | 57 | 164 | 7.0 | 13.9 | 0.00 | 0.00 | 0.00 | 46 | 1010.4 |
| 20260507203542 | 57 | 152 | 5.2 | 13.9 | 0.00 | 0.00 | 0.00 | 45 | 1010.3 |
| 20260507203047 | 57 | 168 | 2.6 | 11.3 | 0.00 | 0.00 | 0.00 | 45 | 1010.4 |
| 20260507202540 | 57 | 144 | 4.3 | 14.8 | 0.00 | 0.00 | 0.00 | 45 | 1010.3 |
| 20260507202040 | 58 | 360 | 3.5 | 14.8 | 0.00 | 0.00 | 0.00 | 46 | 1010.2 |
| 20260507201550 | 57 | 138 | 8.7 | 14.8 | 0.00 | 0.00 | 0.00 | 45 | 1010.3 |
| 20260507201041 | 57 | 134 | 6.1 | 13.9 | 0.00 | 0.00 | 0.00 | 46 | 1010.2 |
| 20260507200541 | 57 | 134 | 5.2 | 13.9 | 0.00 | 0.00 | 0.00 | 47 | 1010.2 |
| 20260507200051 | 58 | 119 | 5.2 | 14.8 | 0.00 | 0.00 | 0.00 | 42 | 1010.3 |
| 20260507195539 | 58 | 158 | 5.2 | 14.8 | 0.00 | 0.00 | 0.00 | 42 | 1010.2 |
| 20260507195041 | 57 | 143 | 2.6 | 13.0 | 0.00 | 0.00 | 0.00 | 42 | 1010.2 |
| 20260507194548 | 57 | 153 | 6.1 | 14.8 | 0.00 | 0.00 | 0.00 | 42 | 1010.4 |
| 20260507194041 | 57 | 126 | 7.8 | 15.6 | 0.00 | 0.00 | 0.00 | 41 | 1010.3 |
| 20260507193540 | 58 | 136 | 8.7 | 15.6 | 0.00 | 0.00 | 0.00 | 42 | 1010.5 |
| 20260507193052 | 58 | 151 | 4.3 | 14.8 | 0.00 | 0.00 | 0.00 | 42 | 1010.3 |
| 20260507192539 | 57 | 230 | 5.2 | 14.8 | 0.00 | 0.00 | 0.00 | 42 | 1010.4 |
| 20260507192040 | 57 | 125 | 6.1 | 14.8 | 0.00 | 0.00 | 0.00 | 40 | 1010.6 |
| 20260507191547 | 57 | 150 | 6.1 | 15.6 | 0.00 | 0.00 | 0.00 | 40 | 1010.6 |
| 20260507191039 | 57 | 123 | 6.1 | 16.5 | 0.00 | 0.00 | 0.00 | 42 | 1010.7 |
| 20260507190539 | 57 | 150 | 7.8 | 16.5 | 0.00 | 0.00 | 0.00 | 42 | 1010.4 |
| 20260507190052 | 58 | 139 | 5.2 | 15.6 | 0.00 | 0.00 | 0.00 | 42 | 1010.4 |
| 20260507185538 | 58 | 123 | 5.2 | 15.6 | 0.00 | 0.00 | 0.00 | 43 | 1010.6 |
| 20260507185041 | 57 | 139 | 6.1 | 15.6 | 0.00 | 0.00 | 0.00 | 43 | 1010.7 |
| 20260507184549 | 57 | 161 | 4.3 | 17.4 | 0.00 | 0.00 | 0.00 | 42 | 1010.6 |
| 20260507184041 | 57 | 142 | 7.0 | 17.4 | 0.00 | 0.00 | 0.00 | 42 | 1010.7 |
| 20260507183543 | 57 | 144 | 6.1 | 17.4 | 0.00 | 0.00 | 0.00 | 41 | 1010.8 |
| 20260507183055 | 57 | 159 | 7.8 | 17.4 | 0.00 | 0.00 | 0.00 | 42 | 1010.7 |
| 20260507182540 | 57 | 136 | 6.1 | 13.9 | 0.00 | 0.00 | 0.00 | 42 | 1010.7 |
| 20260507182041 | 57 | 162 | 7.8 | 13.9 | 0.00 | 0.00 | 0.00 | 42 | 1010.7 |
| 20260507181549 | 57 | 107 | 3.5 | 11.3 | 0.00 | 0.00 | 0.00 | 43 | 1010.8 |
| 20260507181039 | 58 | 138 | 4.3 | 10.4 | 0.00 | 0.00 | 0.00 | 43 | 1010.8 |
| 20260507180544 | 58 | 53 | 2.6 | 10.4 | 0.00 | 0.00 | 0.00 | 44 | 1010.8 |
| 20260507180057 | 57 | 172 | 4.3 | 13.0 | 0.00 | 0.00 | 0.00 | 45 | 1010.8 |
| 20260507175539 | 56 | 109 | 7.0 | 13.0 | 0.00 | 0.00 | 0.00 | 44 | 1011.0 |
| 20260507175039 | 56 | 137 | 7.8 | 14.8 | 0.00 | 0.00 | 0.00 | 44 | 1011.0 |
| 20260507174552 | 57 | 154 | 5.2 | 14.8 | 0.00 | 0.00 | 0.00 | 48 | 1011.0 |
| 20260507174041 | 56 | 159 | 6.1 | 13.9 | 0.00 | 0.00 | 0.00 | 42 | 1011.1 |
| 20260507173543 | 57 | 59 | 3.5 | 19.1 | 0.00 | 0.00 | 0.00 | 42 | 1011.2 |
| 20260507173101 | 57 | 127 | 5.2 | 19.1 | 0.00 | 0.00 | 0.00 | 43 | 1011.3 |
| 20260507172543 | 57 | 146 | 7.8 | 13.9 | 0.00 | 0.00 | 0.00 | 41 | 1011.3 |
| 20260507172043 | 57 | 126 | 5.2 | 13.9 | 0.00 | 0.00 | 0.00 | 41 | 1011.3 |
| 20260507171555 | 57 | 125 | 4.3 | 13.9 | 0.00 | 0.00 | 0.00 | 44 | 1011.4 |
| 20260507171042 | 57 | 98 | 6.1 | 12.2 | 0.00 | 0.00 | 0.00 | 44 | 1011.4 |
| 20260507170542 | 56 | 149 | 5.2 | 13.9 | 0.00 | 0.00 | 0.00 | 46 | 1011.3 |
| 20260507170056 | 56 | 154 | 3.5 | 13.9 | 0.00 | 0.00 | 0.00 | 46 | 1011.4 |
| 20260507165541 | 56 | 153 | 4.3 | 15.6 | 0.00 | 0.00 | 0.00 | 44 | 1011.5 |
| 20260507165039 | 56 | 148 | 7.0 | 15.6 | 0.00 | 0.00 | 0.00 | 42 | 1011.5 |
| 20260507164548 | 56 | 115 | 7.8 | 14.8 | 0.00 | 0.00 | 0.00 | 43 | 1011.4 |
| 20260507164041 | 57 | 142 | 2.6 | 9.6 | 0.00 | 0.00 | 0.00 | 45 | 1011.4 |
| 20260507163539 | 57 | 90 | 1.7 | 13.9 | 0.00 | 0.00 | 0.00 | 43 | 1011.3 |
| 20260507163051 | 56 | 132 | 3.5 | 16.5 | 0.00 | 0.00 | 0.00 | 43 | 1011.5 |
| 20260507162541 | 56 | 0 | 4.3 | 16.5 | 0.00 | 0.00 | 0.00 | 45 | 1011.4 |
| 20260507162038 | 56 | 142 | 4.3 | 13.0 | 0.00 | 0.00 | 0.00 | 42 | 1011.4 |
| 20260507161556 | 56 | 165 | 6.1 | 12.2 | 0.00 | 0.00 | 0.00 | 42 | 1011.5 |
| 20260507161040 | 56 | 83 | 3.5 | 12.2 | 0.00 | 0.00 | 0.00 | 45 | 1011.3 |
| 20260507160541 | 56 | 155 | 5.2 | 12.2 | 0.00 | 0.00 | 0.00 | 47 | 1011.3 |
| 20260507160057 | 55 | 109 | 3.5 | 10.4 | 0.00 | 0.00 | 0.00 | 43 | 1011.4 |
| 20260507155538 | 55 | 125 | 3.5 | 13.9 | 0.00 | 0.00 | 0.00 | 44 | 1011.4 |
| 20260507155044 | 55 | 174 | 2.6 | 13.9 | 0.00 | 0.00 | 0.00 | 46 | 1011.4 |
| 20260507154555 | 55 | 130 | 4.3 | 13.9 | 0.00 | 0.00 | 0.00 | 43 | 1011.5 |
| 20260507154040 | 55 | 169 | 7.0 | 13.9 | 0.00 | 0.00 | 0.00 | 47 | 1011.5 |
| 20260507153540 | 55 | 144 | 4.3 | 13.9 | 0.00 | 0.00 | 0.00 | 45 | 1011.4 |
| 20260507153101 | 56 | 134 | 4.3 | 13.0 | 0.00 | 0.00 | 0.00 | 47 | 1011.4 |
| 20260507152539 | 55 | 130 | 5.2 | 13.0 | 0.00 | 0.00 | 0.00 | 48 | 1011.4 |
| 20260507152041 | 55 | 149 | 4.3 | 9.6 | 0.00 | 0.00 | 0.00 | 46 | 1011.6 |
| 20260507151552 | 55 | 153 | 4.3 | 9.6 | 0.00 | 0.00 | 0.00 | 46 | 1011.6 |
| 20260507151040 | 55 | 161 | 3.5 | 9.6 | 0.00 | 0.00 | 0.00 | 44 | 1011.5 |
| 20260507150539 | 55 | 142 | 2.6 | 9.6 | 0.00 | 0.00 | 0.00 | 51 | 1011.5 |
| 20260507150055 | 55 | 130 | 1.7 | 9.6 | 0.00 | 0.00 | 0.00 | 47 | 1011.6 |
| 20260507145541 | 55 | 144 | 1.7 | 7.0 | 0.00 | 0.00 | 0.00 | 49 | 1011.6 |
| 20260507145038 | 55 | 148 | 2.6 | 7.0 | 0.00 | 0.00 | 0.00 | 48 | 1011.7 |
| 20260507144553 | 54 | 0 | 2.6 | 7.0 | 0.00 | 0.00 | 0.00 | 50 | 1011.7 |
| 20260507144039 | 54 | 78 | 0.9 | 10.4 | 0.00 | 0.00 | 0.00 | 48 | 1011.7 |
| 20260507143540 | 54 | 140 | 2.6 | 10.4 | 0.00 | 0.00 | 0.00 | 48 | 1011.8 |
| 20260507143103 | 55 | 123 | 0.9 | 9.6 | 0.00 | 0.00 | 0.00 | 50 | 1011.9 |
| 20260507142542 | 54 | 172 | 0.9 | 9.6 | 0.00 | 0.00 | 0.00 | 54 | 1011.9 |
| 20260507142040 | 54 | 150 | 0.0 | 9.6 | 0.00 | 0.00 | 0.00 | 53 | 1011.9 |
| 20260507141551 | 52 | 63 | 2.6 | 12.2 | 0.00 | 0.00 | 0.00 | 53 | 1012.0 |
| 20260507141041 | 53 | 150 | 5.2 | 12.2 | 0.00 | 0.00 | 0.00 | 57 | 1012.1 |
| 20260507140540 | 53 | 148 | 3.5 | 10.4 | 0.00 | 0.00 | 0.00 | 52 | 1012.1 |
| 20260507140051 | 52 | 104 | 2.6 | 10.4 | 0.00 | 0.00 | 0.00 | 58 | 1012.2 |
| 20260507135544 | 52 | 116 | 2.6 | 10.4 | 0.00 | 0.00 | 0.00 | 58 | 1012.3 |
| 20260507135042 | 52 | 79 | 1.7 | 10.4 | 0.00 | 0.00 | 0.00 | 61 | 1012.3 |
| 20260507134553 | 51 | 141 | 1.7 | 6.1 | 0.00 | 0.00 | 0.00 | 67 | 1012.4 |
| 20260507134040 | 51 | 150 | 1.7 | 7.0 | 0.00 | 0.00 | 0.00 | 66 | 1012.4 |
| 20260507133541 | 50 | 160 | 1.7 | 7.0 | 0.00 | 0.00 | 0.00 | 67 | 1012.4 |
| 20260507133051 | 50 | 148 | 0.9 | 7.8 | 0.00 | 0.00 | 0.00 | 70 | 1012.4 |
| 20260507132538 | 49 | 265 | 2.6 | 7.8 | 0.00 | 0.00 | 0.00 | 70 | 1012.4 |
| 20260507132044 | 49 | 90 | 0.9 | 4.3 | 0.00 | 0.00 | 0.00 | 69 | 1012.5 |
| 20260507131552 | 48 | 132 | 0.9 | 4.3 | 0.00 | 0.00 | 0.00 | 73 | 1012.5 |
| 20260507131042 | 48 | 35 | 0.0 | 4.3 | 0.00 | 0.00 | 0.00 | 73 | 1012.5 |
| 20260507130542 | 48 | 0 | 1.7 | 4.3 | 0.00 | 0.00 | 0.00 | 72 | 1012.5 |
| 20260507125540 | 47 | 115 | 0.0 | 7.8 | 0.00 | 0.01 | 0.00 | 77 | 1012.5 |
| 20260507125040 | 47 | 142 | 2.6 | 7.0 | 0.00 | 0.01 | 0.00 | 75 | 1012.4 |
| 20260507124556 | 46 | 139 | 1.7 | 6.1 | 0.00 | 0.01 | 0.00 | 77 | 1012.3 |
| 20260507124042 | 46 | 124 | 1.7 | 6.1 | 0.00 | 0.01 | 0.00 | 78 | 1012.3 |
| 20260507123540 | 45 | 123 | 0.9 | 6.1 | 0.00 | 0.01 | 0.00 | 81 | 1012.3 |
| 20260507123057 | 45 | 144 | 2.6 | 6.1 | 0.00 | 0.01 | 0.00 | 81 | 1012.4 |
| 20260507122542 | 44 | 0 | 0.0 | 1.7 | 0.00 | 0.01 | 0.00 | 85 | 1012.3 |
| 20260507122041 | 44 | 119 | 0.0 | 2.6 | 0.00 | 0.01 | 0.00 | 92 | 1012.5 |
| 20260507121556 | 43 | 0 | 0.0 | 2.6 | 0.00 | 0.01 | 0.00 | 92 | 1012.5 |
| 20260507121040 | 42 | 0 | 0.0 | 0.0 | 0.00 | 0.01 | 0.00 | 93 | 1012.4 |
| 20260507120540 | 42 | 0 | 0.0 | 0.0 | 0.00 | 0.01 | 0.00 | 93 | 1012.5 |
| 20260507120050 | 41 | 0 | 0.0 | 0.0 | 0.00 | 0.01 | 0.00 | 93 | 1012.4 |